Home   Weather   Bambari   Past weeks

Flag for Central African Republic Past Weather in Bambari, Central African Republic — Yesterday and Last 2 Weeks

Now
90 °F

Scattered clouds.


Feels Like: 96 °F
Forecast: 70 / 86 °F
Wind: 2 mph from North

Location: Bangui Airport

Current Time: Sep 28, 2016 at 1:01:43 PM

Latest Report: Sep 28, 2016 at 12:00 PM


Visibility: N/A

Pressure: 29.89 "Hg

Humidity: 55%

Dew Point: 72 °F

Location of BambariLocation

Past Weather in Bambari — Graph

°F

Bambari Temperature Yesterday

Maximum temperature yesterday: 93 °F (at 3:00 PM)
Minimum temperature yesterday: 72 °F (at 6:00 AM)
Average temperature yesterday: 80 °F

High & Low Weather Summary for the Past Weeks

 TemperatureHumidityPressure
High95 °F (Sep 14, 2:00 PM)100% (Sep 14, 1:00 AM)30.04 "Hg (Sep 14, 1:00 AM)
Low70 °F (Sep 15, 5:00 AM)46% (Sep 18, 2:00 PM)29.74 "Hg (Sep 19, 3:00 PM)
Average78 °F83%29.89 "Hg
* Reported Sep 13 12:00 PM — Sep 28 12:00 PM, Bambari, Weather by CustomWeather, © 2016

Note: Actual official high and low records may vary slightly from our data, if they occured in-between our weather recording intervals... More about our weather records

Advertising

Bambari Weather History for the Previous 24 Hours

Scroll right to see more
 ConditionsComfort  
Time TempWeatherWind HumidityBarometerVisibility
12:00 PM
Wed, Sep 28
90 °FScattered clouds.2 mph55%29.89 "HgN/A
11:00 AM88 °FScattered clouds.3 mph59%29.92 "HgN/A
10:00 AM84 °FScattered clouds.2 mph70%29.95 "HgN/A
9:00 AM79 °FPartly sunny.2 mph79%29.98 "HgN/A
8:00 AM77 °FPartly sunny.2 mph83%29.95 "Hg5 mi
7:00 AM75 °FPartly sunny.3 mph89%29.95 "Hg5 mi
6:00 AM73 °FPartly sunny.2 mph94%29.95 "Hg5 mi
5:00 AM73 °FPassing clouds.2 mph94%29.92 "Hg5 mi
4:00 AM73 °FPassing clouds.No wind94%29.89 "Hg5 mi
3:00 AM73 °FPassing clouds.2 mph94%29.89 "Hg5 mi
2:00 AM73 °FThunderstorms. Passing clouds.2 mph89%29.89 "Hg5 mi
1:00 AM73 °FThunderstorms. Passing clouds.3 mph94%29.92 "Hg5 mi
12:00 AM73 °FThunderstorms. Passing clouds.3 mph94%29.95 "HgN/A
11:00 PM
Tue, Sep 27
75 °FThunderstorms. Passing clouds.7 mph89%29.95 "HgN/A
10:00 PM77 °FThunderstorms. Passing clouds.10 mph89%29.95 "HgN/A
9:00 PM79 °FThunderstorms. Passing clouds.No wind79%29.95 "HgN/A
8:00 PM79 °FThunderstorms. Passing clouds.3 mph79%29.89 "HgN/A
7:00 PM81 °FThunderstorms. Passing clouds.9 mph74%29.89 "HgN/A
6:00 PM82 °FThunderstorms. Passing clouds.3 mph79%29.86 "HgN/A
5:00 PM84 °FScattered clouds.5 mph74%29.80 "HgN/A
4:00 PM90 °FScattered clouds.2 mph55%29.80 "HgN/A
3:00 PM93 °FScattered clouds.5 mph49%29.80 "HgN/A
2:00 PM90 °FScattered clouds.2 mph59%29.80 "HgN/A
1:00 PM90 °FScattered clouds.2 mph55%29.83 "HgN/A
Weather by CustomWeather, © 2016

See weather overviewHow to use our weather pages